Location: Julian California
(33.0790°N, 116.6010°W)
Time: 09:58:05
(UTC-08:00)

Terra - Pass Details

Date: 12 July 2018
Orbit: 701 x 703 km, 98.2° (Epoch: 16 November)

Event Time Altitude Azimuth Distance (km) Brightness Sun altitude
Exits shadow 22:14:00 31° 67° (ENE) 1,218 2.9 -23.4°
Drops below altitude 10° 22:17:59 10° 10° (N) 2,168 4.8 -23.9°
Sets 22:20:26 0° 0° (N) 3,090 5.9 -24.2°
